Regional Weather Roundup
Issued by NWS

Home | Current Version | Previous Version | Graphics & Text | Print | Product List | Glossary On
Versions: 1 2 3 4 5 6 7 8 9 10 11 12 13 14 15 16 17 18 19 20 21 22 23 24 25 26 27 28 29 30 31 32 33 34 35 36 37 38 39 40 41 42 43 44 45 46 47 48 49 50
000
ASUS45 KBOU 201007
RWRCO

WEATHER ROUNDUP FOR COLORADO
NATIONAL WEATHER SERVICE DENVER/BOULDER CO
400 AM MDT WED AUG 20 2014

NOTE: "FAIR" INDICATES FEW OR NO CLOUDS BELOW 12000 FEET WITH NO
SIGNIFICANT WEATHER AND/OR OBSTRUCTIONS TO VISIBILITY.

COZ001>005-013-030-031-201100-
...NORTHWEST COLORADO...

CITY           SKY/WX    TMP DP  RH WIND       PRES   REMARKS
CRAIG          CLOUDY    56  54  93 CALM      30.04S
HAYDEN         CLOUDY    55  50  82 E7        30.05S
MEEKER         CLOUDY    57  54  89 NE6       30.05R
MOUNT WERNER   NOT AVBL
STEAMBOAT SPGS CLOUDY    54  52  94 CALM      30.07S
WALDEN         CLOUDY    50  46  87 SE8       30.13S
$$

COZ006>008-011-201100-
...WEST CENTRAL VALLEYS...

CITY           SKY/WX    TMP DP  RH WIND       PRES   REMARKS
GRAND JUNCTION CLOUDY    61  61 100 W3        29.99R
MONTROSE       CLOUDY    62  59  90 SE6       30.06S
EAGLE          CLOUDY    57  55  94 CALM      30.10S
RIFLE          CLOUDY    60  58  92 CALM      30.02S
DELTA          RAIN      65  62  90 E5        30.02S
NUCLA          CLOUDY    63  54  72 NE3       30.09S
$$

COZ017>023-064>068-201100-
...SOUTHWEST COLORADO...

CITY           SKY/WX    TMP DP  RH WIND       PRES   REMARKS
DURANGO        CLOUDY    60  52  74 CALM      30.12R
CORTEZ         CLOUDY    60  58  92 CALM      30.09R
PAGOSA SPRINGS CLOUDY    55  54  96 CALM      30.19R
TELLURIDE      RAIN      54  52  94 CALM      30.23R
WOLF CREEK PAS NOT AVBL
$$

COZ009-010-012-014-032>034-037-058>063-201100-
...CENTRAL COLORADO...

CITY           SKY/WX    TMP DP  RH WIND       PRES   REMARKS
ASPEN          CLOUDY    54  52  93 CALM      30.14R
BUENA VISTA    MOCLDY    54  49  82 NW3       30.12S
COPPER MTN     MOCLDY    46  37  71 S20G28    30.38R
BERTHOUD PASS  MOCLDY    39  37  93 W12G18    30.41S
COTTONWOOD PAS MOCLDY    57  41  54 CALM      30.24F
GUNNISON       CLOUDY    55  46  71 NW5       30.16R
KREMMLING      LGT RAIN  54  50  87 CALM      30.12S
LEADVILLE      CLOUDY    47  45  93 NE3       30.23S
MONARCH PASS   CLOUDY    43  39  87 SW28      30.48S
SALIDA         MOCLDY    61  47  60 W6        30.16F
SUNLIGHT       FOG       48  46  93 CALM      30.31F VSB 1
WILKERSON PASS MOCLDY    45  37  76 SW7       30.35F
$$

COZ069>075-201100-
...SAN LUIS VALLEY/SANGRE DE CRISTO MOUNTAINS...

CITY           SKY/WX    TMP DP  RH WIND       PRES   REMARKS
ALAMOSA        CLOUDY    59  46  62 SE8       30.11F
LA VETA PASS   CLOUDY    52  41  66 S8G16     30.27S
SAGUACHE       CLOUDY    59  45  58 CALM      30.15R
$$

COZ035-036-038>040-201100-
...NORTHERN COLORADO FRONT RANGE...

CITY           SKY/WX    TMP DP  RH WIND       PRES   REMARKS
DENVER INTL AP CLOUDY    67  53  61 SW6       29.90F
DMNS CITY PARK   N/A     65  52  62 SW3       29.90F
AURORA         MOCLDY    63  54  74 SE5       29.93F
FRONT RANGE AP CLOUDY    66  55  68 W6        29.91F
ERIE MUNI ARPT CLOUDY    63  55  75 CALM      29.89F
BOULDER MUN AP CLOUDY    66  52  59 CALM      29.90F
CENTENNIAL     CLOUDY    63  51  65 CALM      29.93F
BROOMFIELD     CLOUDY    64  50  59 W3        29.93S
FORT COLLINS   CLOUDY    64  52  63 N5        29.91S
LONGMONT       CLOUDY    66  55  66 CALM      29.90F
$$

COZ041-046-047-076>085-087-088-201100-
...PIKES PEAK/PALMER DIVIDE AND SOUTHERN FOOTHILLS...

CITY           SKY/WX    TMP DP  RH WIND       PRES   REMARKS
COLO. SPRINGS  MOCLDY    62  51  67 N6        29.97F
A. F. ACADEMY  MOCLDY    57  50  77 N9        29.99F
ELLICOTT       MOCLDY    59  49  69 CALM      29.95S
FALCON         MOCLDY    60  48  65 NW6       30.01F
FORT CARSON    CLOUDY    63  52  67 NW8       29.94S
LIMON          CLOUDY    63  50  62 CALM      29.91S
MONUMENT HILL  CLOUDY    59  45  58 SW5       30.01F
TRINIDAD       MOCLDY    65  47  52 SW6       29.96S
$$

COZ042>045-048>051-090-091-201100-
...NORTHEAST COLORADO...

CITY           SKY/WX    TMP DP  RH WIND       PRES   REMARKS
GREELEY ARPT   CLOUDY    63  52  67 CALM      29.88F
AKRON          CLOUDY    65  59  81 W9        29.86S
BURLINGTON     CLOUDY    73  57  57 S14       29.84F
WRAY             N/A     67  61  79 E6        29.80F
STERLING       CLOUDY    64  63  94 E3        29.82S
HOLYOKE        NOT AVBL
FORT MORGAN    CLOUDY    63  57  81 N6        29.86F
$$

COZ086-089-092>099-201100-
...SOUTHEAST COLORADO...

CITY           SKY/WX    TMP DP  RH WIND       PRES   REMARKS
PUEBLO         CLOUDY    66  52  60 W7        29.87S
LA JUNTA       MOCLDY    74  54  49 SW14      29.84R
LAMAR          PTCLDY    76  58  53 S13       29.79S
SPRINGFIELD      N/A     69  59  70 S12       29.89F
$$



USA.gov is the U.S. government's official web portal to all federal, state and local government web resources and services.